Simultaneous Nadir Overpasses (SNOs) Predictions

Prediction of SNOs between GOES-16 and METOP-B Satellite Orbit:

Table of predicted SNOs for the next 14.0 days since TLE Epoch: 11/12/2022
Index Date Time (GOES-16) GOES-16 Lat,Lon METOP-B Lat,Lon Distance(km) Time Diff (sec)
1 11/12/2022 14:34:04 -0.06, -75.21 0.05, -75.63 48.85 80
2 11/15/2022 02:32:25 0.05, -75.20 0.05, -75.23 4.10 80
3 11/17/2022 14:27:57 -0.04, -75.24 -0.13, -74.79 51.02 80
4 11/19/2022 02:49:37 0.04, -75.24 -0.87, -79.39 472.64 80
5 11/20/2022 02:26:18 0.04, -75.25 0.25, -74.40 98.12 80
6 11/21/2022 14:47:49 -0.03, -75.30 0.78, -78.95 416.55 80
7 11/22/2022 14:27:10 -0.03, -75.31 -0.34, -73.96 154.41 80
8 11/24/2022 02:46:09 0.03, -75.31 -0.70, -78.54 368.65 80
9 11/25/2022 02:22:49 0.03, -75.32 0.42, -73.55 202.28 80
